534  
ASUS43 KEAX 291810  
RWREAX  
 
WEATHER ROUNDUP FOR EASTERN KANSAS AND NORTHWEST MISSOURI  
NATIONAL WEATHER SERVICE KANSAS CITY/PLEASANT HILL MO  
100 PM CDT WED MAR 29 2017  
 
KSZ040-057-103>105-MOZ028-029-037-043-291900-   
..KANSAS CITY METROPOLITAN AREA
 
 
 
CITY SKY/WX TMP DP RH WIND PRES REMARKS
 
K.C. INTL CLOUDY 50 49 96 E21 29.74F  
6HR MIN TEMP: 48; 6HR MAX TEMP: 50; 6HR PCP: 0.13;  
 
K.C. DOWNTOWN CLOUDY 53 51 93 E16G23 29.73F  
6HR MIN TEMP: 50; 6HR MAX TEMP: 53; 6HR PCP: 0.06;  
 
LEES SUMMIT CLOUDY 54 52 93 E18G29 29.74F  
6HR MIN TEMP: 49; 6HR MAX TEMP: 54; 6HR PCP: 0.05;  
 
OLATHE - IXD CLOUDY 57 53 86 E14G21 29.70F  
6HR MIN TEMP: 49; 6HR MAX TEMP: 57; 6HR PCP: 0.26;  
 
OLATHE - OJC CLOUDY 56 55 97 E16G24 29.70F  
6HR MIN TEMP: 48; 6HR MAX TEMP: 56; 6HR PCP: 0.21;  
 
LAWRENCE CLOUDY 54 53 97 E15 29.70F  
 

 
 
MOZ001>008-011>017-020>025-030>033-038>040-044>046-053-054-291900-   
..NORTHERN AND CENTRAL MISSOURI
 
 
 
CITY SKY/WX TMP DP RH WIND PRES REMARKS
 
ST. JOSEPH CLOUDY 49 48 97 E14G24 29.78F  
6HR MIN TEMP: 48; 6HR MAX TEMP: 49; 6HR PCP: 0.28;  
 
MOSBY CLOUDY 50 46 87 E18 29.77F  
WARRENSBURG CLOUDY 52 52 100 E16G25 29.77F  
WHITEMAN AFB DRIZZLE 52 52 100 E20G25 29.75F  
6HR PCP: 0.08;  
 
CLINTON CLOUDY 57 55 94 E13G21 29.73F  
SEDALIA LGT RAIN 54 53 97 E22G30 29.79F  
6HR MIN TEMP: 51; 6HR MAX TEMP: 54; 6HR PCP: 0.02;  
 
WARSAW NOT AVBL  
CHILLICOTHE NOT AVBL  
KIRKSVILLE LGT RAIN 48 47 96 E17G29 29.90F  
6HR MIN TEMP: 43; 6HR MAX TEMP: 48; 6HR PCP: 0.51;  
 

 
 
MOZ041-047>049-056>058-063>065-088>090-097-291900-   
..EASTERN AND SOUTHERN MISSOURI
 
 
 
CITY SKY/WX TMP DP RH WIND PRES REMARKS
 
ST. LOUIS INTL LGT RAIN 57 50 77 E15 29.99F  
6HR MIN TEMP: 49; 6HR MAX TEMP: 57; 6HR PCP: 0.01;  
 
SPIRIT OF STL CLOUDY 56 51 84 E17G23 29.95F  
COLUMBIA CLOUDY 51 49 92 E18G29 29.85F  
JEFFERSON CITY CLOUDY 56 50 80 E24G32 29.85F  
ROLLA CLOUDY 63 55 75 E14G22 29.82F  
OSAGE BEACH CLOUDY 62 55 77 E9 29.79F  
SPRINGFIELD MOSUNNY 68 59 73 SE24G36 29.72F  
BRANSON PTSUNNY 66 59 77 SE17G29 29.77F  
JOPLIN PTSUNNY 70 59 68 S17G28 29.67F  
WEST PLAINS MOSUNNY 66 57 72 SE15G25 29.83F  
 

 
 
IAZ060-094-KSZ022-034>040-054-083-096-NEZ052-066-093-291900-    
..KANSAS...SOUTHEAST NEBRASKA AND IOWA
 
 
 
CITY SKY/WX TMP DP RH WIND PRES REMARKS
 
TOPEKA CLOUDY 53 52 96 E16 29.69F  
6HR MIN TEMP: 50; 6HR MAX TEMP: 53; 6HR PCP: 0.29;  
 
MANHATTAN LGT RAIN 49 49 100 NE18 29.70F FOG  
EMPORIA CLOUDY 59 58 96 E14 29.62F  
CHANUTE CLOUDY 68 59 73 S16 29.63F  
WICHITA LGT RAIN 56 55 97 SE3 29.61S FOG  
OMAHA RAIN 44 39 82 NE20G30 29.92F  
LINCOLN RAIN 44 43 96 NE16G23 29.91F FOG  
FALLS CITY CLOUDY 46 45 96 NE14 29.79S  
LAMONI RAIN 44 43 96 E13G18 29.86F FOG  
DES MOINES LGT RAIN 44 42 93 NE16G28 29.97F FOG  
 

 
 
 
 
CLICK HERE TO GO TO PREVIOUS BULLETINS.

The Nexlab MO Page
The Nexlab KS Page Main Text Page